Regional Weather Roundup
Issued by NWS

Home | Current Version | Previous Version | Text Only | Print | Product List | Glossary Off
Versions: 1 2 3 4 5 6 7 8 9 10 11 12 13 14 15 16 17 18 19 20 21 22 23 24 25 26 27 28 29 30 31 32 33 34 35 36 37 38 39 40 41 42 43 44 45 46 47 48 49 50

000
ASUS43 KDTX 031201
RWRMI
MICHIGAN HOURLY REGIONAL WEATHER ROUNDUP
NATIONAL WEATHER SERVICE DETROIT/PONTIAC MI
700 AM EST TUE MAR 03 2015

NOTE: "FAIR" INDICATES FEW OR NO CLOUDS BELOW 12,000 FEET WITH NO
SIGNIFICANT WEATHER AND/OR OBSTRUCTION TO VISIBILITY.

MIZ047>049-052>055-059>063-066>070-074>076-081>083-031300-
SOUTHEAST LOWER MICHIGAN

CITY           SKY/WX    TMP DP  RH WIND       PRES   REMARKS
ADRIAN         CLOUDY    22  15  75 S6        30.15F WCI  14
6HR MIN TEMP:  21; 6HR MAX TEMP:  22;

ALMA           CLOUDY    24  17  76 SE7       30.09F WCI  16
ANN ARBOR      LGT SNOW  22  15  75 SE5       30.13F WCI  16
BAD AXE        LGT SNOW  20  18  91 S8        30.14F WCI  10
CARO           CLOUDY    22  17  82 SE5       30.12F WCI  15
DETROIT CITY   CLOUDY    24  15  68 SE8       30.17F WCI  15
6HR MIN TEMP:  24; 6HR MAX TEMP:  26;

DETROIT        LGT SNOW  23  15  71 SE8       30.16F WCI  14
6HR MIN TEMP:  23; 6HR MAX TEMP:  24; 6HR PCP: TRACE;

FLINT          CLOUDY    25  15  66 S8        30.13F WCI  16
6HR MIN TEMP:  22; 6HR MAX TEMP:  25;

GROSSE ILE     LGT SNOW  21  16  79 E9        30.15F WCI  11
HILLSDALE      FLURRIES  22  14  71 SE9       30.10R WCI  12
6HR MIN TEMP:  22; 6HR MAX TEMP:  23;

HOWELL         CLOUDY    23  15  71 SE10G17   30.11F WCI  12
6HR MIN TEMP:  22; 6HR MAX TEMP:  24;


CITY           SKY/WX    TMP DP  RH WIND       PRES   REMARKS
JACKSON        CLOUDY    22  14  71 SE9       30.11F WCI  12
6HR MIN TEMP:  22; 6HR MAX TEMP:  24; 6HR PCP: TRACE;

LAMBERTVILLE   CLOUDY    27  16  63 CALM      30.15F
LANSING        CLOUDY    24  14  65 S10       30.11F WCI  14
6HR MIN TEMP:  24; 6HR MAX TEMP:  25;

LAPEER         CLOUDY    22  15  77 SE3       30.13F
MASON          FLURRIES  23  14  69 S12       30.11S WCI  12
6HR MIN TEMP:  23; 6HR MAX TEMP:  24;

MONROE         CLOUDY    23  16  74 E8        30.13F WCI  14
MT. CLEMENS    CLOUDY    21  16  81 SE12      30.15F WCI   9
6HR MIN TEMP:  16; 6HR MAX TEMP:  22;

PONTIAC        CLOUDY    22  14  71 SE6       30.11F WCI  14
6HR MIN TEMP:  22; 6HR MAX TEMP:  23;

PORT HOPE        N/A     21  12  68 S5        30.12F WCI  15
6HR MIN TEMP:  15; 6HR MAX TEMP:  22;

PORT HURON     CLOUDY    19  16  86 SE7       30.18F WCI  10
TRI CITIES     CLOUDY    24  15  68 SE8       30.11F WCI  15
6HR MIN TEMP:  22; 6HR MAX TEMP:  25;

TROY           CLOUDY    26  16  66 SE5       30.17F WCI  20
SAGINAW HB     CLOUDY    25  18  74 SE7       30.12F WCI  17
$$
MIZ043>046-050>051-056>058-064>065-071>073-077>080-031300-
SOUTHWEST LOWER MICHIGAN

CITY           SKY/WX    TMP DP  RH WIND       PRES   REMARKS
BATTLE CREEK   CLOUDY    25  15  66 S7        30.10S WCI  17
6HR MIN TEMP:  24; 6HR MAX TEMP:  26; 6HR PCP: TRACE;

BENTON HARBOR  LGT SNOW  23  18  81 SE10      30.05F VSB 1   WCI  12
6HR MIN TEMP:  23; 6HR MAX TEMP:  25; 6HR PCP: TRACE;

BIG RAPIDS     CLOUDY    23  19  87 SE5       30.04F WCI  16
6HR MIN TEMP:  20; 6HR MAX TEMP:  23;

COLDWATER      CLOUDY    23  14  68 S5        30.11S WCI  17
6HR MIN TEMP:  23; 6HR MAX TEMP:  24;

FREMONT        CLOUDY    24  15  69 SE8       30.03F WCI  15
HOLLAND        LGT SNOW  24  20  84 SE12      30.07F VSB 3/4 WCI  13
6HR MIN TEMP:  24; 6HR MAX TEMP:  27; 6HR PCP: TRACE;

GRAND RAPIDS   CLOUDY    24  15  68 SE8       30.08F WCI  15
6HR MIN TEMP:  23; 6HR MAX TEMP:  25;

IONIA          CLOUDY    25  17  73 S9        30.09R WCI  15
KALAMAZOO      LGT SNOW  24  16  71 S7        30.10S WCI  16
6HR MIN TEMP:  24; 6HR MAX TEMP:  25;

LUDINGTON      CLOUDY    24  17  72 SE10      30.00F WCI  14
6HR MIN TEMP:  22; 6HR MAX TEMP:  24;

MARSHALL       CLOUDY    22  14  70 SE7       30.09F WCI  14
MOUNT PLEASANT CLOUDY    23  17  77 SE7       30.07F WCI  15
6HR MIN TEMP:  22; 6HR MAX TEMP:  23;

MUSKEGON       FLURRIES  26  15  63 S16       30.05F WCI  14
6HR MIN TEMP:  24; 6HR MAX TEMP:  26; 6HR PCP: TRACE;

SOUTH HAVEN    LGT SNOW  25  21  85 SE7       30.06F WCI  17
$$
MIZ016>042-031300-
NORTHERN LOWER MICHIGAN

CITY           SKY/WX    TMP DP  RH WIND       PRES   REMARKS
ALPENA         CLOUDY    12   5  73 S5        30.08F WCI   4
6HR MIN TEMP:  -5; 6HR MAX TEMP:  12;

BEAVER ISLAND  LGT SNOW  19  17  91 SE8       29.99F WCI   9
6HR MIN TEMP:  14; 6HR MAX TEMP:  19;

BELLAIRE       LGT SNOW  21  18  89 S3        30.03F
6HR MIN TEMP:  -1; 6HR MAX TEMP:  21;

CADILLAC       CLOUDY    20  16  84 SE6       30.00F WCI  12
CHARLEVOIX     LGT SNOW  18  15  89 SE7       30.03F WCI   9
FRANKFORT      CLOUDY    23  19  87 SE9       30.00F WCI  13
GAYLORD        LGT SNOW  16  13  88 S10       29.99F FOG     WCI   4
6HR MIN TEMP:  -5; 6HR MAX TEMP:  16; 6HR PCP: TRACE;

GRAYLING       CLOUDY    18  16  90 S5        30.03F WCI  11
HARBOR SPRINGS LGT SNOW  14  11  85 CALM      30.02F
HOUGHTON LAKE  LGT SNOW  19  15  84 S8        30.04F FOG     WCI   9
6HR MIN TEMP:   6; 6HR MAX TEMP:  20; 6HR PCP:  0.04;

MANISTEE       CLOUDY    23  16  74 SE6       30.01F WCI  16
OSCODA         LGT SNOW  20  15  82 SW6       30.10F WCI  12
PELLSTON       LGT SNOW   9   5  84 SE3       30.03F FOG
6HR MIN TEMP: -10; 6HR MAX TEMP:   9; 6HR PCP: TRACE;

ROGERS CITY    CLOUDY    16   7  67 S8        30.07F WCI   5
TRAVERSE CITY  CLOUDY    22  17  81 VRB5      30.01F WCI  16
6HR MIN TEMP:   9; 6HR MAX TEMP:  22; 6HR PCP:  0.01;

$$
MIZ007>008-015-031300-
EASTERN UPPER MICHIGAN

CITY           SKY/WX    TMP DP  RH WIND       PRES   REMARKS
KINROSS        CLOUDY    10   7  85 SE9       30.01F WCI  -2
6HR MIN TEMP:   0; 6HR MAX TEMP:  12;

MACKINAC ISLAN CLOUDY    16   4  60 SE10      30.01F WCI   4
6HR MIN TEMP:  12; 6HR MAX TEMP:  16;

NEWBERRY       LGT SNOW  13  11  90 S9        29.96F WCI   1
S. S. MARIE    CLOUDY     3  -2  79 E5        30.02F WCI  -6
6HR MIN TEMP:  -2; 6HR MAX TEMP:   3;

MUNISING         N/A     24  12  60 S12       29.91F WCI  13
6HR MIN TEMP:  17; 6HR MAX TEMP:  24;

$$
MIZ004>006-011>014-085-031300-
CENTRAL UPPER MICHIGAN

CITY           SKY/WX    TMP DP  RH WIND       PRES   REMARKS
MANISTIQUE     LGT SNOW  23  21  90 S5        29.95F WCI  17
6HR MIN TEMP:  20; 6HR MAX TEMP:  24;

ESCANABA       CLOUDY    21  19  93 S9        29.95F WCI  11
6HR MIN TEMP:  19; 6HR MAX TEMP:  23;

MENOMINEE      CLOUDY    21  18  86 S5        29.93F WCI  15
6HR MIN TEMP:  21; 6HR MAX TEMP:  25;

SAWYER-GWINN   CLOUDY    18  10  73 S10       29.87F WCI   6
$$
MIZ001>003-009>011-084-031300-
WESTERN UPPER MICHIGAN

CITY           SKY/WX    TMP DP  RH WIND       PRES   REMARKS
IRON MOUNTAIN  CLOUDY    18  15  88 SE5       29.86F WCI  11
6HR MIN TEMP:  18; 6HR MAX TEMP:  20; 6HR PCP: TRACE;

HOUGHTON       CLOUDY    18   5  57 S8        29.79F WCI   8
6HR MIN TEMP:  10; 6HR MAX TEMP:  18;

COPPER HARBOR    N/A     22   8  55 VRB7      29.82F WCI  13
6HR MIN TEMP:  16; 6HR MAX TEMP:  22;

IRONWOOD       CLOUDY    19  16  86 S7        29.76F WCI  10
6HR MIN TEMP:  19; 6HR MAX TEMP:  21;

$$

ABBREVIATIONS USED IN REMARKS
   TC - TEMPERATURE IN CELSIUS
  WCI - WIND CHILL INDEX
   HX - HEAT INDEX
  VSB - VISIBILITY



USA.gov is the U.S. government's official web portal to all federal, state and local government web resources and services.